KCUB Airport Information

Runway Information
Runway 13 Length 5002 ft width 75 ft
Elevation 193 ft Threshold 0 ft Heading 127
Runway 31 Length 5002 ft Width 75 ft
Elevation 179 ft Threshold 399 ft Heading 307
Airport Frequencies
Type A/D Name APP/DEP Frequency 133.4 MHZ
Type ASOS Name ASOS Frequency 119.675 MHZ
Type CLD Name CLNC DEL Frequency 124.4 MHZ
Type OPS Name MIL OPS Frequency 122.8 MHZ
Type RDO Name ANDERSON R Frequency 114.7 MHZ
Type UNIC Name CTAF/UNICO Frequency 122.8 MHZ
Airport Navaids
Airport Weather Information & NOTAM
ADDS - METARS form results

(1539 UTC 25 June 2018)
 
METAR text: KCUB 251453Z AUTO 29004KT 10SM CLR 30/22 A3008 RMK AO2 SLP184 T03000217 58002
Conditions at: KCUB (COLUMBIA-OWENS , SC, US) observed 1453 UTC 25 June 2018
Temperature: 30.0°C (86°F)
Dewpoint: 21.7°C (71°F) [RH = 61%]
Pressure (altimeter): 30.08 inches Hg (1018.7 mb)
[Sea-level pressure: 1018.4 mb]
Winds: from the WNW (290 degrees) at 5 MPH (4 knots; 2.1 m/s)
Visibility: 10 or more miles (16+ km)
Ceiling: at least 12,000 feet AGL
Clouds: sky clear below 12,000 feet AGL
Weather: automated observation with no human augmentation;
there may or may not be significant weather present at this time